Effective Sunday, March 17, 2024, the National Weather Service National Data Buoy Center will discontinue its Dial-A-Buoy Interactive Voice Response system. For more information, see Service Change Notice 24-06 (PDF).

Station TXVT2 - 8775302 - TX State Aquarium Visibility, TX Image indicating link to RSS feed of recent meteorological observations for station TXVT2


Conditions at TXVT2 as of
(11:12 am CST)
1712 GMT on 03/01/2024:
     

Click on the graph icon in the table below to see a time series plot of the last five days of that observation.

5-day plot - Atmospheric Pressure Atmospheric Pressure (PRES):30.13 in
5-day plot - Air Temperature Air Temperature (ATMP): 56.7 °F
5-day plot - Dew Point Dew Point (DEWP): 51.3 °F
5-day plot - Visibility Visibility (VIS): 5.9 nmi
NOS Water Level Observation Network Water Level
Previous observations
TIME
(CST)
5-day plot - Wind Direction
WDIR
 
5-day plot - Wind Speed
WSPD
kts
5-day plot - Wind Gust
GST
kts
5-day plot - Wave Height
WVHT
ft
5-day plot - Dominant Wave Period
DPD
sec
5-day plot - Average Wave Period
APD
sec
5-day plot - Mean Wave Direction
MWD
 
5-day plot - Atmospheric Pressure
PRES
in
5-day plot - Pressure Tendency
PTDY
in
5-day plot - Air Temperature
ATMP
°F
5-day plot - Water Temperature
WTMP
°F
5-day plot - Dew Point
DEWP
°F
5-day plot - Salinity
SAL
psu
5-day plot - Visibility
VIS
nmi
5-day plot - Tide (above MLLW)
TIDE
ft
2024-03-01 11:06 am-------30.13- 55.9- 51.3- 5.9-
2024-03-01 11:00 am-------30.13+0.02 55.6- 50.5- 5.9-
2024-03-01 10:54 am-------30.13- 55.8- 50.5- 5.9-
2024-03-01 10:48 am-------30.14- 55.9- 50.2- 5.9-
2024-03-01 10:42 am-------30.13- 55.8- 50.2- 5.9-
2024-03-01 10:36 am-------30.13- 55.8- 50.2- 5.9-
2024-03-01 10:30 am-------30.13- 55.8- 50.0- 5.9-
2024-03-01 10:24 am-------30.13- 55.4- 50.2- 5.9-
2024-03-01 10:18 am-------30.13- 55.2- 49.8- 5.9-
2024-03-01 10:12 am-------30.14- 55.2- 50.0- 5.9-
2024-03-01 10:06 am-------30.13- 54.7- 49.8- 5.9-
2024-03-01 10:00 am-------30.13+0.02 54.9- 49.8- 5.9-
2024-03-01 09:54 am-------30.13- 54.1- 49.5- 5.9-
2024-03-01 09:48 am-------30.13- 53.8- 49.3- 5.9-
2024-03-01 09:42 am-------30.12- 53.8- 49.5- 5.9-
2024-03-01 09:36 am-------30.13- 53.1- 49.1- 5.9-
2024-03-01 09:30 am-------30.13- 53.4- 49.3- 5.9-
2024-03-01 09:24 am-------30.13- 53.1- 49.1- 5.9-
2024-03-01 09:18 am-------30.13- 52.7- 48.9- 5.9-
2024-03-01 09:12 am-------30.13- 52.7- 48.9- 5.9-
2024-03-01 09:06 am-------30.13- 52.7- 48.7- 5.9-
2024-03-01 09:00 am-------30.12+0.04 52.7- 48.7- 5.9-
2024-03-01 08:54 am-------30.12- 52.5- 48.6- 5.9-
2024-03-01 08:48 am-------30.12- 52.5- 48.4- 5.9-
2024-03-01 08:42 am-------30.12- 52.5- 48.4- 5.9-
2024-03-01 08:36 am-------30.12- 52.3- 48.0- 5.9-
2024-03-01 08:30 am-------30.12- 52.2- 48.0- 5.9-
2024-03-01 08:24 am-------30.12- 52.2- 47.8- 5.9-
2024-03-01 08:18 am-------30.12- 52.2- 48.0- 5.9-
2024-03-01 08:12 am-------30.11- 52.2- 47.8- 5.9-
2024-03-01 08:06 am-------30.11- 52.2- 47.8- 5.9-
2024-03-01 08:00 am-------30.11+0.04 52.0- 47.8- 5.9-
2024-03-01 07:54 am-------30.11- 51.4- 47.3- 5.9-
2024-03-01 07:48 am-------30.11- 51.4- 47.5- 5.9-
2024-03-01 07:42 am-------30.11- 51.3- 47.3- 5.9-
2024-03-01 07:36 am-------30.10- 51.1- 47.1- 5.9-
2024-03-01 07:30 am-------30.09- 51.3- 47.3- 5.9-
2024-03-01 07:24 am-------30.10- 51.3- 47.3- 5.9-
2024-03-01 07:18 am-------30.09- 51.3- 47.3- 5.9-
2024-03-01 07:06 am-------30.11- 51.1- 47.3- 5.9-
2024-03-01 07:00 am-------30.11+0.03 51.1- 47.1- 5.9-
2024-03-01 06:54 am-------30.11- 51.1- 46.8- 5.9-
2024-03-01 06:48 am-------30.10- 51.1- 46.8- 5.9-
2024-03-01 06:42 am-------30.09- 51.1- 46.8- 5.9-
2024-03-01 06:36 am-------30.09- 51.1- 46.8- 5.9-
2024-03-01 06:30 am-------30.10- 51.1- 46.6- 5.9-
2024-03-01 06:24 am-------30.09- 51.1- 46.6- 5.9-
2024-03-01 06:18 am-------30.09- 51.3- 46.8- 5.9-
2024-03-01 06:12 am-------30.09- 51.3- 46.6- 5.9-
2024-03-01 06:06 am-------30.09- 51.3- 46.8- 5.9-
2024-03-01 06:00 am-------30.09+0.00 51.3- 46.6- 5.9-
2024-03-01 05:48 am-------30.09- 51.3- 46.6- 5.9-
2024-03-01 05:42 am-------30.09- 51.1- 46.2- 5.9-
2024-03-01 05:36 am-------30.09- 51.3- 46.4- 5.9-
2024-03-01 05:30 am-------30.08- 51.1- 46.2- 5.9-
2024-03-01 05:24 am-------30.08- 51.1- 46.2- 5.9-
2024-03-01 05:18 am-------30.08- 51.1- 46.2- 5.9-
2024-03-01 05:12 am-------30.07- 50.9- 46.0- 5.9-
2024-03-01 05:06 am-------30.07- 50.9- 45.9- 5.9-
2024-03-01 05:00 am-------30.08-0.02 51.1- 46.0- 5.9-
2024-03-01 04:54 am-------30.07- 51.1- 46.0- 5.9-
2024-03-01 04:48 am-------30.07- 51.1- 45.9- 5.9-
2024-03-01 04:42 am-------30.07- 51.1- 45.9- 5.9-
2024-03-01 04:36 am-------30.08- 51.1- 45.9- 5.9-
2024-03-01 04:30 am-------30.08- 51.1- 45.7- 5.9-
2024-03-01 04:24 am-------30.08- 51.3- 45.9- 5.9-
2024-03-01 04:18 am-------30.09- 51.1- 45.7- 5.9-
2024-03-01 04:12 am-------30.08- 51.1- 45.5- 5.9-
2024-03-01 04:06 am-------30.08- 51.1- 45.7- 5.9-
2024-03-01 04:00 am-------30.08-0.03 51.1- 45.5- 5.9-
2024-03-01 03:48 am-------30.06- 51.1- 45.3- 5.9-
2024-03-01 03:42 am-------30.06- 51.3- 45.5- 5.9-
2024-03-01 03:36 am-------30.05- 51.1- 45.1- 5.9-
2024-03-01 03:30 am-------30.07- 51.1- 45.1- 5.9-
2024-03-01 03:24 am-------30.09- 51.1- 45.3- 5.9-
2024-03-01 03:18 am-------30.09- 51.3- 45.5- 5.9-
2024-03-01 03:12 am-------30.09- 51.4- 45.5- 5.9-
2024-03-01 03:06 am-------30.09- 51.4- 45.3- 5.9-
2024-03-01 03:00 am-------30.09-0.04---- 5.9-
2024-03-01 02:48 am-------30.07- 51.6- 45.3- 5.9-
2024-03-01 02:42 am-------30.08- 51.6- 45.3- 5.9-
2024-03-01 02:36 am-------30.08- 51.4- 45.1- 5.9-
2024-03-01 02:30 am-------30.08- 51.8- 45.5- 5.9-
2024-03-01 02:18 am-------30.09- 51.6- 45.3- 5.9-
2024-03-01 02:12 am-------30.10- 51.6- 45.3- 5.9-
2024-03-01 02:00 am-------30.09-0.02 51.8- 45.3- 5.9-
2024-03-01 01:48 am-------30.10- 51.6- 45.3- 5.9-
2024-03-01 01:42 am-------30.10- 51.8- 45.3- 5.9-
2024-03-01 01:36 am-------30.09- 51.8- 45.1- 5.9-
2024-03-01 01:30 am-------30.11- 51.8- 45.1- 5.9-
2024-03-01 01:18 am-------30.10- 52.0- 45.3- 5.9-
2024-03-01 01:12 am-------30.09- 51.8- 45.0- 5.9-
2024-03-01 01:00 am-------30.11-0.02 51.8- 45.1- 5.9-
2024-03-01 12:54 am-------30.11- 51.8- 45.1- 5.9-
2024-03-01 12:48 am-------30.12- 51.8- 45.0- 5.9-
2024-03-01 12:42 am-------30.11- 52.0- 45.0- 5.9-
2024-03-01 12:36 am-------30.11- 52.2- 45.3- 5.9-
2024-03-01 12:24 am-------30.11----- 5.9-
2024-03-01 12:18 am-------30.12- 52.3- 45.7- 5.9-
2024-03-01 12:06 am-------30.12- 52.2- 45.5- 5.9-
2024-03-01 12:00 am-------30.13-0.02 52.2- 45.3- 5.9-
2024-02-29 11:54 pm-------30.12----- 5.9-
2024-02-29 11:48 pm-------30.12- 52.5- 45.7- 5.9-
2024-02-29 11:36 pm-------30.12- 52.3- 45.5- 5.9-
2024-02-29 11:30 pm-------30.11- 52.3- 45.5- 5.9-
2024-02-29 11:24 pm-------30.11- 52.2- 45.1- 5.9-
2024-02-29 11:18 pm-------30.11- 52.3- 45.3- 5.9-
2024-02-29 11:06 pm-------30.11- 52.2- 45.0- 5.9-
2024-02-29 11:00 pm-------30.11-0.03 52.2- 45.0- 5.9-
2024-02-29 10:54 pm-------30.11- 52.2- 45.0- 5.9-
2024-02-29 10:48 pm-------30.11- 52.3- 45.0- 5.9-
2024-02-29 10:42 pm-------30.11- 52.2- 44.8- 5.9-
2024-02-29 10:36 pm-------30.11- 52.0- 44.4- 5.9-
2024-02-29 10:30 pm-------30.11- 52.0- 44.4- 5.9-
2024-02-29 10:24 pm-------30.12- 52.0- 44.4- 5.9-
2024-02-29 10:18 pm-------30.12- 51.8- 44.2- 5.9-
2024-02-29 10:12 pm-------30.12- 51.8- 44.2- 5.9-
2024-02-29 10:06 pm-------30.13- 51.8- 44.2- 5.9-
2024-02-29 10:00 pm-------30.13+0.01 51.6- 44.2- 5.9-
2024-02-29 09:54 pm-------30.14- 51.6- 44.4- 5.9-
2024-02-29 09:48 pm-------30.14- 51.6- 44.6- 5.9-
2024-02-29 09:42 pm-------30.14- 51.4- 44.6- 5.9-
2024-02-29 09:36 pm-------30.14- 51.6- 45.1- 5.9-
2024-02-29 09:30 pm-------30.14- 51.4- 45.0- 5.9-
2024-02-29 09:24 pm-------30.14- 51.4- 45.5- 5.9-
2024-02-29 09:18 pm-------30.14- 51.3- 45.5- 5.9-
2024-02-29 09:12 pm-------30.14- 51.4- 45.7- 5.9-
2024-02-29 09:06 pm-------30.14- 51.6- 45.7- 5.9-
2024-02-29 09:00 pm-------30.15+0.04 52.3- 45.5- 5.9-
2024-02-29 08:54 pm-------30.14- 52.9- 44.8- 5.9-
2024-02-29 08:48 pm-------30.15- 53.1- 44.8- 5.9-
2024-02-29 08:42 pm-------30.15- 53.1- 44.4- 5.9-
2024-02-29 08:36 pm-------30.15- 53.2- 44.2- 5.9-
2024-02-29 08:30 pm-------30.15- 53.2- 43.9- 5.9-
2024-02-29 08:24 pm-------30.15- 53.4- 44.1- 5.9-
2024-02-29 08:18 pm-------30.15- 53.4- 43.9- 5.9-
2024-02-29 08:12 pm-------30.14- 53.2- 43.7- 5.9-
2024-02-29 08:06 pm-------30.14- 53.4- 43.7- 5.9-
2024-02-29 08:00 pm-------30.14+0.05 53.6- 43.9- 5.9-
2024-02-29 07:54 pm-------30.13- 53.4- 43.7- 5.9-
2024-02-29 07:48 pm-------30.13- 53.6- 43.5- 5.9-
2024-02-29 07:42 pm-------30.13- 53.6- 43.3- 5.9-
2024-02-29 07:36 pm-------30.13- 53.4- 43.0- 5.9-
2024-02-29 07:30 pm-------30.12- 53.6- 43.0- 5.9-
2024-02-29 07:24 pm-------30.12- 53.6- 43.2- 5.9-
2024-02-29 07:18 pm-------30.12- 53.6- 43.0- 5.9-
2024-02-29 07:12 pm-------30.12- 53.6- 42.8- 5.9-
2024-02-29 07:06 pm-------30.12- 53.8- 42.6- 5.9-
2024-02-29 07:00 pm-------30.12+0.02 53.8- 42.6- 5.9-
2024-02-29 06:54 pm-------30.12- 53.8- 42.4- 5.9-
2024-02-29 06:48 pm-------30.12- 54.0- 42.3- 5.9-
2024-02-29 06:42 pm-------30.12- 54.1- 42.4- 5.9-
2024-02-29 06:36 pm-------30.12- 54.3- 42.6- 5.9-
2024-02-29 06:30 pm-------30.12- 54.3- 42.4- 5.9-
2024-02-29 06:24 pm-------30.12- 54.5- 42.3- 5.9-
2024-02-29 06:18 pm-------30.11- 54.7- 42.3- 5.9-
2024-02-29 06:12 pm-------30.11- 55.0- 42.4- 5.9-
2024-02-29 06:06 pm-------30.11- 55.0- 42.1- 5.9-
2024-02-29 06:00 pm-------30.11-0.01 55.0- 42.1- 5.9-
2024-02-29 05:54 pm-------30.10- 55.6- 42.6- 5.9-
2024-02-29 05:48 pm-------30.10----- 5.9-
2024-02-29 05:42 pm-------30.10- 55.9- 43.3- 5.9-
2024-02-29 05:36 pm-------30.11- 55.9- 43.7- 5.9-
2024-02-29 04:42 pm-------30.09- 56.7- 43.5- 5.9-
2024-02-29 04:36 pm-------30.09- 56.5- 43.2- 5.9-
2024-02-29 04:30 pm-------30.09- 56.7- 43.7- 5.9-
2024-02-29 04:24 pm-------30.09- 56.7- 43.2- 5.9-
2024-02-29 04:18 pm-------30.09- 56.8- 43.0- 5.9-
2024-02-29 04:12 pm-------30.09- 56.7- 42.6- 5.9-
2024-02-29 04:06 pm-------30.09- 56.7- 42.6- 5.9-
2024-02-29 04:00 pm-------30.10-0.09 56.7- 42.6- 5.9-
2024-02-29 03:54 pm-------30.10- 56.7- 42.8- 5.9-
2024-02-29 03:48 pm-------30.10- 57.2- 43.3- 5.9-
2024-02-29 03:42 pm-------30.11- 57.2- 43.5- 5.9-
2024-02-29 03:36 pm-------30.10- 57.2- 43.5- 5.9-
2024-02-29 03:30 pm-------30.11- 56.8- 43.5- 5.9-
2024-02-29 03:24 pm-------30.11- 56.8- 43.7- 5.9-
2024-02-29 03:18 pm-------30.11- 56.7- 43.9- 5.9-
2024-02-29 03:12 pm-------30.11- 56.5- 43.5- 5.9-
2024-02-29 03:06 pm-------30.12- 56.5- 43.5- 5.9-
2024-02-29 03:00 pm-------30.12-0.09 56.3- 43.3- 5.9-
2024-02-29 02:54 pm-------30.12- 56.3- 43.2- 5.9-
2024-02-29 02:48 pm-------30.13- 56.3- 43.2- 5.9-
2024-02-29 02:42 pm-------30.13- 56.1- 43.2- 5.9-
2024-02-29 02:36 pm-------30.13- 56.1- 43.3- 5.9-
2024-02-29 02:30 pm-------30.13- 56.1- 43.3- 5.9-
2024-02-29 02:24 pm-------30.13- 56.3- 43.0- 5.9-
2024-02-29 02:18 pm-------30.13- 56.1- 43.2- 5.9-
2024-02-29 02:12 pm-------30.14- 56.1- 43.2- 5.9-
2024-02-29 02:06 pm-------30.14- 55.9- 43.0- 5.9-
2024-02-29 02:00 pm-------30.15-0.07 56.1- 43.7- 5.9-
2024-02-29 01:54 pm-------30.15- 56.1- 42.8- 5.9-
2024-02-29 01:48 pm-------30.16- 55.9- 42.6- 5.9-
2024-02-29 01:42 pm-------30.16- 55.9- 41.7- 5.9-
2024-02-29 01:36 pm-------30.16- 55.9- 42.1- 5.9-
2024-02-29 01:30 pm-------30.17- 55.9- 41.5- 5.9-
2024-02-29 01:24 pm-------30.17- 56.1- 41.2- 5.9-
2024-02-29 01:18 pm-------30.17- 56.3- 41.7- 5.9-
2024-02-29 01:12 pm-------30.18- 56.3- 41.0- 5.9-
2024-02-29 01:06 pm-------30.18- 56.3- 41.2- 5.9-
2024-02-29 01:00 pm-------30.19-0.02 56.5- 41.0- 5.9-
2024-02-29 12:54 pm-------30.19- 56.7- 41.4- 5.9-
2024-02-29 12:42 pm-------30.19- 56.8- 41.4- 5.9-
2024-02-29 12:36 pm-------30.19- 56.7- 41.0- 5.9-
2024-02-29 12:30 pm-------30.19- 56.7- 40.3- 5.9-
2024-02-29 12:24 pm-------30.20- 56.5- 40.5- 5.9-
2024-02-29 12:18 pm-------30.21- 56.5- 40.1- 5.9-
2024-02-29 12:12 pm-------30.21- 56.5- 40.3- 5.9-
2024-02-29 12:06 pm-------30.21- 56.7- 40.8- 5.9-
2024-02-29 12:00 pm-------30.21-0.01 57.2- 41.9- 5.9-
2024-02-29 11:54 am-------30.21- 57.4- 43.3- 5.9-
2024-02-29 11:48 am-------30.22- 57.6- 43.5- 5.9-
2024-02-29 11:42 am-------30.22- 57.6- 43.9- 5.9-
2024-02-29 11:36 am-------30.22- 57.7- 44.1- 5.9-
2024-02-29 11:30 am-------30.22- 57.7- 44.2- 5.9-
2024-02-29 11:24 am-------30.22- 57.7- 44.2- 5.9-
2024-02-29 11:12 am-------30.22- 57.2- 43.5- 5.9-
2024-02-29 11:06 am-------30.22- 57.2- 43.5- 5.9-
2024-02-29 11:00 am-------30.22-0.02 57.2- 43.3- 5.9-
2024-02-29 10:54 am-------30.21- 57.4- 43.3- 5.9-